User: anonymous   Login
Location: Arborea
(39.7744°N, 8.5819°E)
Time: 03:23:59
(UTC+00:00)
Language:

Okean 1-7 Rocket - Orbit

View from above orbital plane
View from above orbital plane
View from above satellite
View from above satellite

Ground track
Ground track

The orbit data is extracted from the following two-line orbital elements,

1 23318U 94066B   22020.67900001  .00000152  00000-0  17338-4 0  9995
2 23318  82.5396  51.8763 0024676 139.3416 220.9645 14.78947761470704
Epoch (UTC): 20 January 2022 16:17:45
Eccentricity: 0.0024676
inclination: 82.5396°
perigee height: 615 km
apogee height: 650 km
right ascension of ascending node: 51.8763°
argument of perigee: 139.3416°
revolutions per day: 14.78947761
mean anomaly at epoch: 220.9645°
orbit number at epoch: 47070

The dashed part of the orbit path shows where the satellite is in the earth's shadow,  

DLR